Regional Weather Roundup
Issued by NWS State College, PA

Home | Current Version | Previous Version | Graphics & Text | Print | Product List | Glossary On
Versions: 1 2 3 4 5 6 7 8 9 10 11 12 13 14 15 16 17 18 19 20 21 22 23 24 25 26 27 28 29 30 31 32 33 34 35 36 37 38 39 40 41 42 43 44 45 46 47 48 49 50
000
ASUS41 KCTP 251810
RWRCTP

REGIONAL WEATHER ROUNDUP
NATIONAL WEATHER SERVICE STATE COLLEGE PA
200 PM EDT MON JUL 25 2016

Note: "fair" indicates few or no clouds below 12,000 feet with no
significant weather and/or obstructions to visibility.

* = STATION THAT DOES NOT REPORT PRECIPITATION /E.G. RAIN...SNOW...ETC/
    THUNDER OR FOG.

PAZ002>004-007>009-013>016-020>023-029>032-251900-
WESTERN PENNSYLVANIA

CITY           SKY/WX    TMP DP  RH WIND       PRES   REMARKS
ERIE           PTSUNNY   81  75  82 W9G21     29.92F
MEADVILLE      PTSUNNY   81  71  71 W12       29.96S
FRANKLIN*      PTSUNNY   81  73  78 SW10      29.98R THUNDER
NEW CASTLE     FAIR      83  77  82 SW8       29.96S
BEAVER COUNTY  PTSUNNY   86  73  66 NW10G16   29.96F
BUTLER*        MOSUNNY   90  73  58 W13       29.97F HX  98
PITTSBURGH INT PTSUNNY   92  69  47 W10G20    29.94F HX  97
PITTSBURGH     MOSUNNY   92  70  48 SW18      29.94F HX  97
INDIANA*       PTSUNNY   91  75  59 W15G22    29.97F HX 102
LATROBE        NOT AVBL
WASHINGTON CO* MOSUNNY   93  72  49 W14G20    29.97F HX 100
$$

PAZ004>006-010>012-017>019-024>028-033>037-041-042-045-046-049>053-251900-
CENTRAL PENNSYLVANIA

CITY           SKY/WX    TMP DP  RH WIND       PRES   REMARKS
BRADFORD       TSTM      71  67  87 NW17G23   29.97R FOG
DUBOIS         MOSUNNY   88  70  55 SW14G28   29.94F
CLEARFIELD     PTSUNNY   91  69  48 SW10G20   29.93F HX  96
JOHNSTOWN      MOSUNNY   88  68  51 SW15      30.01F
ALTOONA        MOSUNNY   95  70  44 W9G21     29.95F HX 101
STATE COLLEGE  MOSUNNY   91  73  55 W12       29.91F HX 100
WILLIAMSPORT   MOSUNNY   92  72  51 CALM      29.85F HX  99
SELINSGROVE    MOSUNNY   93  75  55 SW8       29.86F HX 104
FT INDIANTOWN  TSTM      87  76  70 VRB3      29.89S HX  96
CAPITAL CITY   PTSUNNY   97  71  42 SW6       29.87F HX 104
HARRISBURG     CLOUDY    96  77  54 VRB7      29.87F HX 111
YORK           SUNNY     95  73  48 W6        29.90F HX 104
$$

PAZ038>040-043-044-047-048-054-055-060>062-067>071-251900-
EASTERN PENNSYLVANIA

CITY           SKY/WX    TMP DP  RH WIND       PRES   REMARKS
SCRANTON       CLOUDY    91  72  53 VRB7      29.90F HX  98
MOUNT POCONO   MOSUNNY   87  68  52 W16G22    29.97F
ALLENTOWN      MOSUNNY   95  72  47 SW7       29.88F HX 103
QUAKERTOWN*    PTCLDY    93  72  49 CALM      29.91F HX 100
READING        CLOUDY    94  73  50 SW7       29.87F HX 103
LANCASTER      CLOUDY    93  74  53 SW9       29.89F HX 103
COATESVILLE    PTCLDY    91  77  62 W9        29.93F HX 105
POTTSTOWN      MOSUNNY   93  74  53 VRB6      29.90F HX 103
BLUE BELL      PTSUNNY   90  73  58 SW9       29.89F HX  98
DOYLESTOWN     SUNNY     90  71  53 VRB6      29.89F HX  96
WILLOW GROVE   NOT AVBL
NORTH PHILA    MOSUNNY   96  75  50 W8        29.90F HX 108
PHILADELPHIA   PTSUNNY   94  75  54 SW9       29.89F HX 105
$$



USA.gov is the U.S. government's official web portal to all federal, state and local government web resources and services.